Change the Weather History Date:

Monday, May 6, 2013

  Actual Average Record
Temperature  
Mean Temperature 45 °F 49 °F  
Max Temperature 57 °F 65 °F 82 °F (1947)
Min Temperature 33 °F 33 °F 14 °F (1975)
Degree Days  
Heating Degree Days 20 16  
Month to date heating degree days 102 100  
Since 1 July heating degree days 6345 6456  
Cooling Degree Days 0 0  
Month to date cooling degree days 0 0  
Year to date cooling degree days 0 0  
Moisture  
Dew Point 35 °F    
Average Humidity 62    
Maximum Humidity 89    
Minimum Humidity 34    
Precipitation  
Precipitation 0.08 in 0.02 in 0.93 in (1921)
Month to date precipitation 0.08 0.14  
Year to date precipitation 5.08 7.62  
Snow  
Snow 0.00 in 0.10 in 4.50 in (1949)
Month to date snowfall 0.0 0.4  
Since 1 July snowfall 69.7 101.4  
Snow Depth 0.00 in    
Sea Level Pressure  
Sea Level Pressure 29.92 in    
Wind  
Wind Speed 9 mph (SW)    
Max Wind Speed 25 mph    
Max Gust Speed 35 mph    
Visibility 10 miles    
Events Rain    
T = Trace of Precipitation, MM = Missing Value Source: NWS Daily Summary

Daily Weather History Graph

Daily Weather History Graph

Search for Another Location

Airport or City:

Trip Planner

Search our weather history database for the weather conditions in past years. The results will help you decide how hot, cold, wet, or windy it might be!

Date:

Astronomy

May. 06, 2013 Rise Set
Actual Time 5:30 AM MST 7:16 PM MST
Civil Twilight 5:02 AM MST 7:44 PM MST
Nautical Twilight 4:29 AM MST 8:17 PM MST
Astronomical Twilight 3:54 AM MST 8:53 PM MST
Moon 3:27 AM MST (5/6) 4:26 PM MST (5/6)
Length of Visible Light 14h 41m
Length of Day
13h 46m
Waning Crescent, 10% of the Moon is Illuminated
May 6
Waning Crescent
May 9
New
May 17
First Quarter
May 24
Full
May 31
Last Quarter

Hourly Weather History & Observations

Time (MST) Temp. Windchill Dew Point Humidity Pressure Visibility Wind Dir Wind Speed Gust Speed Precip Events Conditions
12:57 AM 41.0 °F 39.0 °F 35.1 °F 79% 29.84 in 10.0 mi NW 3.5 mph - 0.00 in   Overcast
1:57 AM 39.0 °F - 35.1 °F 86% 29.83 in 10.0 mi Calm Calm - N/A   Clear
2:57 AM 36.0 °F 30.3 °F 32.0 °F 86% 29.85 in 10.0 mi NW 6.9 mph - N/A   Clear
3:57 AM 34.0 °F - 30.9 °F 89% 29.87 in 10.0 mi Calm Calm - N/A   Clear
4:57 AM 34.0 °F - 30.9 °F 89% 29.87 in 10.0 mi Calm Calm - N/A   Overcast
5:57 AM 37.0 °F - 33.1 °F 86% 29.90 in 10.0 mi Calm Calm - N/A   Overcast
6:57 AM 39.9 °F - 34.0 °F 79% 29.91 in 10.0 mi Calm Calm - N/A   Overcast
7:57 AM 46.0 °F 40.2 °F 30.0 °F 54% 29.92 in 10.0 mi SSW 12.7 mph - N/A   Mostly Cloudy
8:57 AM 48.0 °F - 30.0 °F 50% 29.96 in 10.0 mi SW 15.0 mph - N/A   Overcast
9:57 AM 50.0 °F - 33.1 °F 52% 29.97 in 10.0 mi SW 16.1 mph - N/A   Mostly Cloudy
10:57 AM 50.0 °F - 33.1 °F 52% 29.98 in 10.0 mi WSW 16.1 mph 26.5 mph N/A   Mostly Cloudy
11:57 AM 53.1 °F - 34.0 °F 48% 29.90 in 10.0 mi SSW 17.3 mph 32.2 mph N/A   Overcast
12:57 PM 57.0 °F - 34.0 °F 42% 29.91 in 10.0 mi SW 20.7 mph 25.3 mph N/A   Mostly Cloudy
1:57 PM 48.9 °F - 39.0 °F 69% 29.96 in 10.0 mi WSW 10.4 mph 20.7 mph 0.01 in Rain Light Rain
2:18 PM 44.6 °F 40.7 °F 39.2 °F 81% 30.10 in 2.0 mi WNW 6.9 mph - 0.04 in Rain Rain
2:27 PM 44.6 °F 42.2 °F 41.0 °F 87% 30.10 in 8.0 mi Variable 4.6 mph - 0.04 in Rain Light Rain
2:57 PM 48.0 °F - 44.1 °F 86% 29.96 in 10.0 mi Variable 3.5 mph - 0.07 in Rain Light Rain
3:57 PM 55.0 °F - 37.0 °F 51% 29.91 in 10.0 mi SSW 21.9 mph 32.2 mph 0.00 in   Scattered Clouds
4:57 PM 54.0 °F - 34.0 °F 47% 29.92 in 10.0 mi SSW 19.6 mph - N/A   Mostly Cloudy
5:57 PM 52.0 °F - 33.1 °F 49% 29.91 in 10.0 mi SSW 16.1 mph 25.3 mph N/A   Partly Cloudy
6:57 PM 50.0 °F - 34.0 °F 54% 29.91 in 10.0 mi SSW 10.4 mph 23.0 mph 0.00 in   Clear
7:57 PM 48.0 °F - 33.1 °F 56% 29.91 in 10.0 mi SW 10.4 mph - N/A   Clear
8:57 PM 48.0 °F - 34.0 °F 58% 29.91 in 10.0 mi SW 9.2 mph - N/A   Mostly Cloudy
9:57 PM 48.0 °F - 37.0 °F 66% 29.91 in 10.0 mi SW 9.2 mph - N/A   Partly Cloudy
10:57 PM 45.0 °F 43.5 °F 37.0 °F 74% 29.91 in 10.0 mi WSW 3.5 mph - N/A   Partly Cloudy
11:57 PM 45.0 °F 42.6 °F 37.0 °F 74% 29.90 in 10.0 mi WSW 4.6 mph - N/A   Partly Cloudy